Seward, AK

10:22 PM AKST on December 11, 2017 (GMT -0900)
Seward

Weather History for PAWD - May, 2013

Change the Weather History Date:

Saturday, May 18, 2013

  Actual Average Record
Temperature  
Mean Temperature 40 °F -  
Max Temperature 43 °F 50 °F 72 °F (2002)
Min Temperature 36 °F 38 °F 30 °F (2006)
Degree Days  
Heating Degree Days 26    
Moisture  
Dew Point 22 °F    
Average Humidity 52    
Maximum Humidity 65    
Minimum Humidity 40    
Precipitation  
Precipitation 0.00 in - - ()
Sea Level Pressure  
Sea Level Pressure 29.75 in    
Wind  
Wind Speed 17 mph (NNW)    
Max Wind Speed 28 mph    
Max Gust Speed 39 mph    
Visibility 10 miles    
Events      
Averages and records for this station are not official NWS values.
T = Trace of Precipitation, MM = Missing Value Source: NWS Daily Summary

Daily Weather History Graph

Daily Weather History Graph

Search for Another Location

Airport or City:

Trip Planner

Search our weather history database for the weather conditions in past years. The results will help you decide how hot, cold, wet, or windy it might be!

Date:

Astronomy

May. 18, 2013 Rise Set
Actual Time 5:11 AM AKDT 10:38 PM AKDT
Civil Twilight 4:03 AM AKDT 11:47 PM AKDT
Nautical Twilight 2:26 AM AKDT 1:21 AM AKDT
Astronomical Twilight Sun does not rise Sun does not rise
Moon 2:06 PM AKDT (5/18) 3:00 AM AKDT (5/18)
Length of Visible Light 19h 43m
Length of Day
17h 27m
First Quarter, 56% of the Moon is Illuminated
May 18
First Quarter
May 24
Full
May 31
Last Quarter
Jun 8
New
Jun 16
First Quarter

Hourly Weather History & Observations

Time (AKDT) Temp. Windchill Dew Point Humidity Pressure Visibility Wind Dir Wind Speed Gust Speed Precip Events Conditions
12:53 AM 41.0 °F 34.3 °F 28.9 °F 62% 29.46 in 10.0 mi North 11.5 mph 20.7 mph N/A   Overcast
1:53 AM 39.9 °F 32.5 °F 28.0 °F 63% 29.47 in 10.0 mi NNW 12.7 mph 25.3 mph N/A   Overcast
2:53 AM 39.9 °F 31.8 °F 28.0 °F 63% 29.49 in 10.0 mi NNW 15.0 mph 24.2 mph N/A   Overcast
3:53 AM 39.0 °F 31.8 °F 27.0 °F 62% 29.51 in 10.0 mi NNW 11.5 mph 21.9 mph N/A   Overcast
4:53 AM 37.9 °F 27.9 °F 27.0 °F 65% 29.53 in 10.0 mi NW 19.6 mph 26.5 mph 0.00 in   Overcast
5:53 AM 37.0 °F 27.4 °F 25.0 °F 62% 29.55 in 10.0 mi NW 17.3 mph 29.9 mph N/A   Overcast
6:53 AM 37.0 °F 26.4 °F 24.1 °F 59% 29.57 in 10.0 mi NW 20.7 mph 28.8 mph N/A   Overcast
7:53 AM 37.0 °F 26.4 °F 23.0 °F 57% 29.60 in 10.0 mi NW 20.7 mph 34.5 mph N/A   Overcast
8:53 AM 37.9 °F 27.3 °F 21.9 °F 53% 29.62 in 10.0 mi NNW 21.9 mph 29.9 mph N/A   Overcast
9:53 AM 37.9 °F 26.1 °F 21.0 °F 51% 29.65 in 10.0 mi NW 27.6 mph 39.1 mph N/A   Clear
10:53 AM 37.9 °F 27.1 °F 21.0 °F 51% 29.68 in 10.0 mi NW 23.0 mph 36.8 mph N/A   Overcast
11:53 AM 39.0 °F 28.3 °F 21.9 °F 50% 29.71 in 10.0 mi NW 24.2 mph 35.7 mph N/A   Mostly Cloudy
12:53 PM 39.0 °F 29.0 °F 19.9 °F 46% 29.74 in 10.0 mi NW 20.7 mph 32.2 mph N/A   Mostly Cloudy
1:53 PM 41.0 °F 31.9 °F 19.9 °F 43% 29.77 in 10.0 mi NW 19.6 mph 32.2 mph N/A   Mostly Cloudy
2:53 PM 42.1 °F 33.1 °F 19.0 °F 40% 29.80 in 10.0 mi NNW 20.7 mph 33.4 mph N/A   Mostly Cloudy
3:53 PM 42.1 °F 32.8 °F 19.9 °F 41% 29.84 in 10.0 mi NNW 21.9 mph 33.4 mph N/A   Mostly Cloudy
4:53 PM 43.0 °F 34.5 °F 19.9 °F 40% 29.88 in 10.0 mi North 19.6 mph 34.5 mph N/A   Overcast
5:53 PM 41.0 °F 32.5 °F 19.0 °F 41% 29.91 in 10.0 mi NW 17.3 mph 27.6 mph N/A   Overcast
6:53 PM 41.0 °F 32.8 °F 19.0 °F 41% 29.94 in 10.0 mi NNW 16.1 mph 26.5 mph N/A   Overcast
7:53 PM 39.9 °F 31.4 °F 19.9 °F 45% 29.98 in 10.0 mi NNW 16.1 mph 23.0 mph N/A   Overcast
8:53 PM 39.0 °F 29.6 °F 19.0 °F 45% 30.01 in 10.0 mi NNW 18.4 mph 23.0 mph N/A   Overcast
9:53 PM 37.9 °F 29.2 °F 19.0 °F 47% 30.06 in 10.0 mi NNW 15.0 mph 24.2 mph N/A   Overcast
10:53 PM 36.0 °F 28.5 °F 23.0 °F 59% 30.10 in 10.0 mi NNE 10.4 mph - N/A   Partly Cloudy
11:53 PM 36.0 °F 28.0 °F 21.9 °F 57% 30.13 in 10.0 mi NNE 11.5 mph - N/A   Mostly Cloudy